SL-12 R/B(2), 18446

Orbit data source: Space-Track

SL-12 R/B(2), 18446 is space debris in GEO originally from a launch on Wed, 28 Oct 1987 UTC launched from the Tyuratam Missile And Space Complex (TTMTR). Debris objects in space refer to the collection of defunct objects orbiting the Earth. Examples of debris include non-operational satellites, rocket bodies, and fragments generated from explosions, collisions, or faulty payload assembly.

Loading next visibility...
SL-12 R/B(2) details
Identifier
18446, 1987-091D
Orbit
GEO
Last TLE update20 hours ago
Origin
Flag of CISRVSN (CIS)
ManufacturerNPO Energiya
MissionSpacecraft
Bus & MotorBLOK DM, Unknown motor
Mass2,440 kg wet, 2,440 kg dry
Launch date (UTC)
1987-10-28 (37 years ago)
Launch vehicleUnknown
Launch site
Tyuratam Missile And Space Complex (TTMTR)
Object type
Payload
Rocket body
Debris
Shape & HBRCyl, 6.27 m
Radar Cross Section23.597 m², Large (>1 m²)

Expand to show TLE details & history

TLE from 20 hours ago
0 SL-12 R/B(2)
1 18446U 87091D   24360.63857642  .00000104  00000-0  00000+0 0  9998
2 18446  11.5561 329.2922 0022983 250.0050 297.2542  1.00207821124648
Epoch: 2024-12-25T15:19Z
Definitive object data (Epoch: 2024-12-25T15:19:33.002Z)
Latitude-1.4057°
Longitude-168.34825°
Altitude35,760.49 km
Speed3.077 km/s
True Right ascension10h 24m 40s
True Declination-1° 24' 15"
Sunlit
Object was in daylight at TLE epoch
Visualization TLE readout
Latitude9.44934°
Longitude130.45968°
Altitude35,858.991 km
Speed3.07 km/s
Apparent Right ascension05h 54m 41s
Apparent Declination4° 07' 11"
Sunlit
Object is in daylight
Visualization observer readout
Local Sidereal Time10:30:44
Azimuth259.408° W
Elevation18.67°
Doppler factor1
Orbital elements
Apogee altitude35,902.494 km
Perigee altitude35,708.592 km
Semi-major axis42,183.68 km
Eccentricity0.0022983
Inclination11.5561°
RAAN329.2922°
Arg. of periapsis250.005°
True anomaly297.01976°
Mean anomaly297.2542°
Eccentric anomaly297.13701°
Mean motion0.25051 °/min
BSTARUnknown
Orbital period1437.06 mins
Loading historical data...
18446 neighbors
Authenticating...
Loading maneuver chart data...
Loading historical data...
Loading historical data...
Loading historical data...
Loading historical data...
Loading historical data...
Loading historical data...
Loading historical data...

SL-12 R/B(2) Visibility forecast

Observer location: undefined°, undefined

Span
Click to sort rows by Start time (UTC) header in descending order
Start Az.
Max El. time (UTC)
Max El. Az.
Max El.
End time (UTC)
End Az.
256 mins2024-12-26 11:09:26.251Z259.392° W2024-12-26 11:09:26.251Z259.392° W17.745°2024-12-26 15:25:26.251Z250.85° W
559 mins2024-12-27 01:50:26.251Z249.576° W2024-12-27 09:09:26.251Z261.568° W18.565°2024-12-27 11:09:26.251Z259.479° W
|